New York, NY

5:57 PM EDT on August 17, 2017 (GMT -0400)
La Guardia

Weather History for KLGA - February, 2011

Change the Weather History Date:

Sunday, February 13, 2011

  Actual Average Record
Temperature  
Mean Temperature 38 °F 35 °F  
Max Temperature 46 °F 42 °F 65 °F (1951)
Min Temperature 30 °F 28 °F 8 °F (1967)
Degree Days  
Heating Degree Days 27 30  
Month to date heating degree days 413 401  
Since 1 July heating degree days 2976 3000  
Cooling Degree Days 0 0  
Month to date cooling degree days 0 0  
Year to date cooling degree days 0 0  
Moisture  
Dew Point 18 °F    
Average Humidity 49    
Maximum Humidity 60    
Minimum Humidity 38    
Precipitation  
Precipitation 0.00 in 0.09 in 2.19 in (1966)
Month to date precipitation 1.24 1.23  
Year to date precipitation 5.19 4.40  
Snow  
Snow 0.00 in 0.30 in 7.70 in (2014)
Month to date snowfall 0.6 4.2  
Since 1 July snowfall 47.2 17.1  
Snow Depth 0.00 in    
Sea Level Pressure  
Sea Level Pressure 29.98 in    
Wind  
Wind Speed 11 mph (SW)    
Max Wind Speed 21 mph    
Max Gust Speed 28 mph    
Visibility 10 miles    
Events      
T = Trace of Precipitation, MM = Missing Value Source: NWS Daily Summary

Daily Weather History Graph

Daily Weather History Graph

Search for Another Location

Airport or City:

Trip Planner

Search our weather history database for the weather conditions in past years. The results will help you decide how hot, cold, wet, or windy it might be!

Date:

Astronomy

Feb. 13, 2011 Rise Set
Actual Time 6:52 AM EST 5:27 PM EST
Civil Twilight 6:24 AM EST 5:55 PM EST
Nautical Twilight 5:52 AM EST 6:27 PM EST
Astronomical Twilight 5:20 AM EST 6:59 PM EST
Moon 12:22 PM EST (2/13) 3:01 AM EST (2/13)
Length of Visible Light 11h 31m
Length of Day
10h 35m
Waxing Gibbous, 74% of the Moon is Illuminated
Feb 13
Waxing Gibbous
Feb 18
Full
Feb 24
Last Quarter
Mar 4
New
Mar 12
First Quarter

Hourly Weather History & Observations

Time (EST) Temp. Windchill Dew Point Humidity Pressure Visibility Wind Dir Wind Speed Gust Speed Precip Events Conditions
12:51 AM 30.0 °F 20.5 °F 10.9 °F 45% 30.11 in 10.0 mi WNW 11.5 mph - N/A   Partly Cloudy
1:51 AM 30.0 °F 20.5 °F 10.0 °F 43% 30.12 in 10.0 mi WNW 11.5 mph - N/A   Clear
2:51 AM 30.0 °F 21.1 °F 8.1 °F 40% 30.13 in 10.0 mi West 10.4 mph - N/A   Clear
3:51 AM 30.0 °F 22.4 °F 9.0 °F 41% 30.13 in 10.0 mi West 8.1 mph - N/A   Partly Cloudy
4:51 AM 30.0 °F 22.4 °F 10.0 °F 43% 30.14 in 10.0 mi WSW 8.1 mph - N/A   Mostly Cloudy
5:51 AM 30.0 °F 24.1 °F 10.9 °F 45% 30.13 in 10.0 mi SW 5.8 mph - N/A   Mostly Cloudy
6:51 AM 30.0 °F 22.4 °F 10.9 °F 45% 30.12 in 10.0 mi SSW 8.1 mph - N/A   Mostly Cloudy
7:51 AM 30.9 °F 23.5 °F 12.0 °F 46% 30.13 in 10.0 mi SW 8.1 mph - N/A   Mostly Cloudy
8:51 AM 33.1 °F 24.9 °F 14.0 °F 46% 30.11 in 10.0 mi SW 10.4 mph - N/A   Overcast
9:51 AM 35.1 °F 25.9 °F 14.0 °F 42% 30.09 in 10.0 mi SSW 13.8 mph - N/A   Overcast
10:51 AM 36.0 °F 27.1 °F 16.0 °F 44% 30.07 in 10.0 mi SSW 13.8 mph 18.4 mph N/A   Overcast
11:51 AM 37.9 °F 30.5 °F 17.1 °F 43% 30.03 in 10.0 mi SW 11.5 mph 19.6 mph N/A   Mostly Cloudy
12:51 PM 41.0 °F 32.8 °F 18.0 °F 40% 29.98 in 10.0 mi SSW 16.1 mph - N/A   Mostly Cloudy
1:51 PM 42.1 °F 35.7 °F 23.0 °F 47% 29.94 in 10.0 mi South 11.5 mph - N/A   Mostly Cloudy
1:57 PM 41.0 °F 33.9 °F 24.8 °F 53% 29.94 in 10.0 mi SSE 12.7 mph - N/A   Mostly Cloudy
2:51 PM 42.1 °F 36.6 °F 26.1 °F 53% 29.90 in 10.0 mi South 9.2 mph - N/A   Mostly Cloudy
3:51 PM 45.0 °F 38.2 °F 21.0 °F 39% 29.87 in 10.0 mi SW 15.0 mph 25.3 mph N/A   Overcast
4:51 PM 45.0 °F 39.3 °F 21.9 °F 40% 29.85 in 10.0 mi SW 11.5 mph - N/A   Mostly Cloudy
5:51 PM 41.0 °F 35.8 °F 28.9 °F 62% 29.87 in 10.0 mi South 8.1 mph - N/A   Mostly Cloudy
6:51 PM 46.0 °F 40.6 °F 23.0 °F 40% 29.86 in 10.0 mi SW 11.5 mph 18.4 mph N/A   Overcast
7:51 PM 45.0 °F 39.3 °F 23.0 °F 42% 29.83 in 10.0 mi SW 11.5 mph 20.7 mph N/A   Overcast
8:51 PM 45.0 °F 37.4 °F 23.0 °F 42% 29.83 in 10.0 mi SW 18.4 mph 27.6 mph N/A   Overcast
9:51 PM 44.1 °F 39.0 °F 23.0 °F 43% 29.82 in 10.0 mi SSW 9.2 mph - N/A   Scattered Clouds
10:51 PM 44.1 °F 37.7 °F 23.0 °F 43% 29.81 in 10.0 mi SSW 12.7 mph 19.6 mph N/A   Scattered Clouds
11:51 PM 43.0 °F 38.2 °F 24.1 °F 47% 29.78 in 10.0 mi SSW 8.1 mph 19.6 mph N/A   Scattered Clouds